Hourly Data Report for September 25, 2017

All times are specified in Local Standard Time (LST). Add 1 hour to adjust for Daylight Saving Time where and when it is observed.

SUSSEX FOUR CORNERS
NEW BRUNSWICK

45°44'30.048" N
65°31'44.039" W
47.00 m
8105210
71656
ASF

Download Data

Hourly Data (September 2017)
Hourly Data Report for September 25, 2017
Temp Definition
°C
Dew Point Temp Definition
°C
Rel Hum Definition
%
Wind Dir Definition
10's deg

Wind Spd Definition
km/h
Visibility Definition
km
Stn Press Definition
kPa
Hmdx Definition


Wind Chill Definition


Weather Definition


TIME
00:00 17.9 15.4 85 3 14   101.02     LegendNANA
01:00 17.9 15.3 85 5 7   101.10     LegendNANA
02:00 16.9 14.9 88 5 8   101.04     LegendNANA
03:00 16.0 14.5 91 2 9   101.05     LegendNANA
04:00 15.6 14.4 93 3 9   101.12     LegendNANA
05:00 15.0 14.1 94 4 10   101.17     LegendNANA
06:00 14.6 13.7 94 4 9   101.22     LegendNANA
07:00 14.3 13.6 95 3 9   101.30     LegendNANA
08:00 16.2 14.2 88 4 5   101.28     LegendNANA
09:00 18.0 14.0 77 6 4   101.28     LegendNANA
10:00 20.7 14.7 69 24 2   101.28     LegendNANA
11:00 23.1 14.9 60 9 3   101.26 27   LegendNANA
12:00 24.9 16.1 58 19 2   101.20 30   LegendNANA
13:00 26.5 16.8 55 21 4   101.12 32   LegendNANA
14:00 27.7 19.2 60 20 11   101.08 35   LegendNANA
15:00 27.1 18.5 59 23 17   101.03 33   LegendNANA
16:00 26.6 18.1 60 21 20   100.99 33   LegendNANA
17:00 25.5 18.0 63 19 13   100.99 32   LegendNANA
18:00 23.2 17.9 72 22 12   100.99 29   LegendNANA
19:00 21.4 18.0 81 24 13   100.98 27   LegendNANA
20:00 19.4 17.0 86 24 12   101.00     LegendNANA
21:00 17.9 16.2 90 23 13   100.98     LegendNANA
22:00 17.0 15.7 92 26 8   100.98     LegendNANA
23:00 16.7 16.0 95 28 9   100.92     LegendNANA

Notes on Data Quality.

Legend

  • E = Estimated
  • M = Missing
  • NA = Not Available
  • ‡ = Partner data that is not subject to review by the National Climate Archives
Date modified: